Location: Madrid
(40.4167°N, 3.7036°W)
Time: 14:26:14
(UTC+00:00)

ISS - Pass Details

Date: 14 July 2024
Orbit: 410 x 424 km, 51.6° (Epoch: 14 July)

Event Time Altitude Azimuth Distance (km) Brightness Sun altitude
Rises 22:36:01 0° 304° (NW) 2,341 1.0 -23.5°
Reaches altitude 10° 22:39:12 10° 337° (NNW) 1,480 0.1 -23.7°
Maximum altitude 22:40:34 12° 2° (N) 1,366 -0.4 -23.8°
Drops below altitude 10° 22:41:56 10° 26° (NNE) 1,481 -0.5 -24.0°
Enters shadow 22:44:31 - 55° (NE) 2,143 0.0 -24.2°
